STARLINK-2713, 48602

Orbit data source: Space-Track

STARLINK-2713, 48602 is a payload satellite owned by SpaceX/Seattle (US) in LEO that was launched on Sat, 15 May 2021 UTC via an FALCON 9 launch vehicle from the Air Force Eastern Test Range (AFETR). Payload-class satellites include a variety of spacecraft equipped with specific instruments for various scientific and technological missions. These include communications satellites like Starlink; space stations such as the ISS; scientific satellites like the Hubble; Earth observation satellites from companies like Planet Labs, Umbra, and HawkEye 360; GPS; miniature CubeSats for education and research; and military/defense satellites.

Loading next visibility...
Identifier
48602, 2021-041BB
Orbit
LEO
Country
Flag of USUS
Related business
Manufacturer
SpaceX/Seattle
Mission
Operational Commercial Communications
Bus & Motor
STARLINK, Unknown motor
Mass
260 kg wet, ~248 kg dry
Launch date (UTC)
2021-05-15 (5 years ago)
Launch vehicle
FALCON 9
Launch site
Air Force Eastern Test Range (AFETR)
Object type
Payload
Rocket body
Debris
Shape & HBR
Box + 1 Pan, 10.1 m
Radar Cross Section
13.562 m², Large (>1 m²)

Expand to show TLE details & history
Last TLE update: 3 days ago

TLE from 3 days ago
0 STARLINK-2713
1 48602U 21041BB  26170.92245802  .00002863  00000-0  10391-3 0  9992
2 48602  53.1594 358.2255 0001743  76.8331 283.2865 15.31726658282372
Epoch: 2026-06-19T22:08Z
TLE epoch observation values (Epoch: 2026-06-19T22:08:20.372Z)
Latitude
-0.00003°
Longitude
117.99611°
Altitude
471.287 km
Speed
7.632 km/s
True Right ascension
23h 52m 54s
True Declination
0° 00' 00"
Sunlit
Object was in daylight at epoch
Visualization orbit readout
Latitude
Unknown
Longitude
Unknown
Altitude
Unknown
Speed
Unknown
Apparent Right ascension
Unknown
Apparent Declination
Unknown
Sunlit
N/A
Visualization observer readout
Local Sidereal Time
21:37:37
Azimuth
Unknown
Elevation
Unknown
Doppler factor
Unknown
Orbital elements
Apogee altitude
472.111 km
Perigee altitude
469.723 km
Semi-major axis
6,849.054 km
Eccentricity
0.00017
Inclination
53.1594°
RAAN
358.2255°
Arg. of periapsis
76.8331°
True anomaly
283.26706°
Mean anomaly
283.2865°
Eccentric anomaly
283.27678°
Mean motion
3.8291 °/min
Orbital period
94.02 mins
BSTAR
0.00010391
Loading maneuver chart data...
Computing Atmospheric mass density...
Loading historical data...
Loading historical data...
Loading historical data...
Loading historical data...
Loading historical data...
Loading historical data...
Loading historical data...

Documentation

Showing up to 5 results
|